Location: ??
(35.5052°N, 139.7262°E)
Time: 18:24:43
(UTC+00:00)

Helios 1B rocket - Pass Details

Date: 20 June 2021
Orbit: 573 x 583 km, 98.2° (Epoch: 29 July)

Event Time Altitude Azimuth Distance (km) Brightness Sun altitude
Rises 16:51:11 0° 4° (N) 2,790 6.9 -23.7°
Reaches altitude 10° 16:53:25 10° 357° (N) 1,886 5.8 -23.4°
Enters shadow 16:56:57 41° 300° (WNW) 842 3.1 -23.1°
